Location: Ellerstadt
(49.4644°N, 8.2615°E)
Time: 04:12:00
(UTC+00:00)

SL-16 R/B - Pass Details

Date: 03 March 2021
Orbit: 842 x 846 km, 71.0° (Epoch: 11 April)

Event Time Altitude Azimuth Distance (km) Brightness Sun altitude
Rises 17:47:17 0° 194° (SSW) 3,388 5.6 -6.3°
Reaches altitude 10° 17:49:44 10° 191° (S) 2,458 4.8 -6.7°
Maximum altitude 17:55:17 61° 113° (ESE) 960 2.3 -7.6°
Drops below altitude 10° 18:00:52 10° 34° (NE) 2,477 4.3 -8.5°
Sets 18:03:21 0° 31° (NNE) 3,417 5.1 -8.9°
